This is the latest recevied weather packets stored in our database for station/object N6DZK. If no packets are shown the sender has not sent any weather packets the latest 10 day(s).
| Time | Temp. | Humidity | Pressure | Rain* | Wind** | Luminosity | Snow |
|---|---|---|---|---|---|---|---|
| 1777686748 | 22.22° C | 57% | 1011.9 hPa | 0 mm | - | 58 W/m² | - |
| 1777686446 | 22.78° C | 56% | 1012 hPa | 0 mm | - | 59 W/m² | - |
| 1777686142 | 23.33° C | 55% | 1011.8 hPa | 0 mm | - | 70 W/m² | - |
| 1777685839 | 23.89° C | 53% | 1012 hPa | 0 mm | - | 73 W/m² | - |
| 1777685534 | 25° C | 49% | 1011.8 hPa | 0 mm | - | 91 W/m² | - |
| 1777685231 | 25.56° C | 47% | 1011.9 hPa | 0 mm | - | 132 W/m² | - |
| 1777684929 | 26.11° C | 46% | 1011.7 hPa | 0 mm | - | 175 W/m² | - |
| 1777684626 | 25.56° C | 46% | 1011.6 hPa | 0 mm | - | 194 W/m² | - |
| 1777684321 | 26.11° C | 46% | 1011.6 hPa | 0 mm | - | 210 W/m² | - |
| 1777684020 | 25.56° C | 47% | 1011.5 hPa | 0 mm | - | 228 W/m² | - |
| 1777683715 | 26.11° C | 45% | 1011.5 hPa | 0 mm | - | 127 W/m² | - |
| 1777683413 | 26.11° C | 46% | 1011.3 hPa | 0 mm | - | 263 W/m² | - |
| 1777683110 | 25.56° C | 46% | 1011.5 hPa | 0 mm | - | 284 W/m² | - |
| 1777682806 | 25.56° C | 46% | 1011.4 hPa | 0 mm | - | 301 W/m² | - |
| 1777682503 | 25.56° C | 47% | 1011.5 hPa | 0 mm | - | 318 W/m² | - |
| 1777682201 | 26.11° C | 46% | 1011.5 hPa | 0 mm | - | 181 W/m² | - |
| 1777681898 | 26.11° C | 47% | 1011.7 hPa | 0 mm | - | 147 W/m² | - |
| 1777681594 | 26.11° C | 48% | 1011.5 hPa | 0 mm | - | 368 W/m² | - |
| 1777681291 | 26.11° C | 47% | 1011.5 hPa | 0 mm | - | 265 W/m² | - |
| 1777680989 | 26.67° C | 46% | 1011.5 hPa | 0 mm | - | 341 W/m² | - |
| 1777680686 | 27.22° C | 46% | 1011.6 hPa | 0 mm | - | 389 W/m² | - |
| 1777680384 | 26.67° C | 46% | 1011.8 hPa | 0 mm | - | 415 W/m² | - |
| 1777680082 | 27.22° C | 45% | 1011.6 hPa | 0 mm | - | 365 W/m² | - |
| 1777679777 | 27.22° C | 45% | 1011.7 hPa | 0 mm | - | 487 W/m² | - |
| 1777679473 | 27.22° C | 44% | 1011.6 hPa | 0 mm | - | 522 W/m² | - |
* Rain latest hour (hover to see other rain measurements)
** Current wind speed in m/s (hover to see current wind gust speed)